Time,TemperatureF,DewpointF,PressureIn,WindDirection,WindDirectionDegrees,WindSpeedMPH,WindSpeedGustMPH,Humidity,HourlyPrecipIn,Conditions,Clouds,dailyrainin,SoftwareType,DateUTC
2013-03-16 00:00:00,47.9,45.1,30.13,SE,134,0.0,5.0,90,0.00,,---,0.00,VWS V14.01,2013-03-16 07:00:00,
2013-03-16 00:05:00,47.9,45.1,30.13,SSE,163,5.0,6.0,90,0.00,,---,0.00,VWS V14.01,2013-03-16 07:05:00,
2013-03-16 00:10:00,47.9,45.1,30.13,WSW,237,3.0,6.0,90,0.00,,---,0.00,VWS V14.01,2013-03-16 07:10:00,
2013-03-16 00:15:00,47.9,45.1,30.13,South,189,3.0,6.0,90,0.00,,---,0.00,VWS V14.01,2013-03-16 07:15:00,
2013-03-16 00:20:00,47.9,45.1,30.13,SE,136,0.0,4.0,90,0.00,,---,0.00,VWS V14.01,2013-03-16 07:20:00,
2013-03-16 00:25:00,47.8,45.0,30.12,WSW,248,2.0,7.0,90,0.00,,---,0.00,VWS V14.01,2013-03-16 07:25:00,
2013-03-16 00:30:00,47.8,45.0,30.12,SE,141,0.0,4.0,90,0.00,,---,0.00,VWS V14.01,2013-03-16 07:30:00,
2013-03-16 00:35:00,47.7,44.9,30.12,South,185,0.0,7.0,90,0.00,,---,0.00,VWS V14.01,2013-03-16 07:35:00,
2013-03-16 00:40:00,47.7,44.9,30.12,SSW,195,0.0,6.0,90,0.00,,---,0.00,VWS V14.01,2013-03-16 07:40:00,
2013-03-16 00:45:00,47.6,44.8,30.12,WSW,238,1.0,4.0,90,0.00,,---,0.00,VWS V14.01,2013-03-16 07:45:00,
2013-03-16 00:50:00,47.6,44.8,30.12,South,175,1.0,4.0,90,0.00,,---,0.00,VWS V14.01,2013-03-16 07:50:00,
2013-03-16 00:55:00,47.6,45.1,30.12,SSE,168,1.0,3.0,91,0.00,,---,0.00,VWS V14.01,2013-03-16 07:55:00,
2013-03-16 01:00:00,47.6,45.1,30.12,SSE,158,1.0,7.0,91,0.00,,---,0.00,VWS V14.01,2013-03-16 08:00:00,
2013-03-16 01:05:00,47.6,44.8,30.12,SE,136,0.0,3.0,90,0.00,,---,0.00,VWS V14.01,2013-03-16 08:05:00,
2013-03-16 01:10:00,47.6,45.1,30.12,West,270,1.0,1.0,91,0.00,,---,0.00,VWS V14.01,2013-03-16 08:10:00,
2013-03-16 01:15:00,47.7,44.9,30.12,West,270,1.0,3.0,90,0.00,,---,0.00,VWS V14.01,2013-03-16 08:15:00,
2013-03-16 01:20:00,47.6,44.8,30.12,WSW,247,3.0,7.0,90,0.00,,---,0.00,VWS V14.01,2013-03-16 08:20:00,
2013-03-16 01:25:00,47.6,44.8,30.12,SW,231,1.0,7.0,90,0.00,,---,0.00,VWS V14.01,2013-03-16 08:25:00,
2013-03-16 01:30:00,47.5,44.7,30.12,SSE,167,5.0,10.0,90,0.00,,---,0.00,VWS V14.01,2013-03-16 08:30:00,
2013-03-16 01:35:00,47.4,44.6,30.12,SSE,164,2.0,9.0,90,0.00,,---,0.00,VWS V14.01,2013-03-16 08:35:00,
2013-03-16 01:40:00,47.4,44.6,30.12,SE,134,2.0,5.0,90,0.00,,---,0.00,VWS V14.01,2013-03-16 08:40:00,
2013-03-16 01:45:00,47.4,44.9,30.12,West,270,1.0,4.0,91,0.00,,---,0.00,VWS V14.01,2013-03-16 08:45:00,
2013-03-16 01:50:00,47.4,44.9,30.11,SSW,196,1.0,9.0,91,0.00,,---,0.00,VWS V14.01,2013-03-16 08:50:00,
2013-03-16 01:55:00,47.4,44.9,30.11,WSW,240,2.0,5.0,91,0.00,,---,0.00,VWS V14.01,2013-03-16 08:55:00,
2013-03-16 02:00:00,47.4,44.9,30.12,SSW,195,2.0,6.0,91,0.00,,---,0.00,VWS V14.01,2013-03-16 09:00:00,
2013-03-16 02:05:00,47.3,44.8,30.12,West,263,2.0,6.0,91,0.00,,---,0.00,VWS V14.01,2013-03-16 09:05:00,
2013-03-16 02:10:00,47.4,44.9,30.12,West,269,1.0,9.0,91,0.00,,---,0.00,VWS V14.01,2013-03-16 09:10:00,
2013-03-16 02:15:00,47.4,44.9,30.12,WNW,285,3.0,7.0,91,0.00,,---,0.00,VWS V14.01,2013-03-16 09:15:00,
2013-03-16 02:20:00,47.4,44.6,30.12,WSW,257,2.0,8.0,90,0.00,,---,0.00,VWS V14.01,2013-03-16 09:20:00,
2013-03-16 02:25:00,47.4,44.6,30.12,WSW,242,0.0,3.0,90,0.00,,---,0.00,VWS V14.01,2013-03-16 09:25:00,
2013-03-16 02:30:00,47.4,44.6,30.12,South,186,3.0,6.0,90,0.00,,---,0.00,VWS V14.01,2013-03-16 09:30:00,
2013-03-16 02:35:00,47.4,44.6,30.12,SW,214,1.0,4.0,90,0.00,,---,0.00,VWS V14.01,2013-03-16 09:35:00,
2013-03-16 02:40:00,47.5,44.7,30.12,SSE,150,3.0,6.0,90,0.00,,---,0.00,VWS V14.01,2013-03-16 09:40:00,
2013-03-16 02:45:00,47.5,44.7,30.11,SSW,206,3.0,7.0,90,0.00,,---,0.00,VWS V14.01,2013-03-16 09:45:00,
2013-03-16 02:50:00,47.5,44.7,30.11,WSW,249,1.0,5.0,90,0.00,,---,0.00,VWS V14.01,2013-03-16 09:50:00,
2013-03-16 02:55:00,47.5,44.7,30.11,SW,216,1.0,6.0,90,0.00,,---,0.00,VWS V14.01,2013-03-16 09:55:00,
2013-03-16 03:00:00,47.5,44.7,30.11,South,186,2.0,6.0,90,0.00,,---,0.00,VWS V14.01,2013-03-16 10:00:00,
2013-03-16 03:05:00,47.5,44.7,30.10,South,174,5.0,7.0,90,0.00,,---,0.00,VWS V14.01,2013-03-16 10:05:00,
2013-03-16 03:10:00,47.5,44.7,30.10,WSW,255,1.0,5.0,90,0.00,,---,0.00,VWS V14.01,2013-03-16 10:10:00,
2013-03-16 03:15:00,47.5,44.7,30.10,SW,222,1.0,6.0,90,0.00,,---,0.00,VWS V14.01,2013-03-16 10:15:00,
2013-03-16 03:20:00,47.5,44.7,30.10,SW,217,1.0,7.0,90,0.00,,---,0.00,VWS V14.01,2013-03-16 10:20:00,
2013-03-16 03:25:00,47.4,44.6,30.10,SSW,206,0.0,4.0,90,0.00,,---,0.00,VWS V14.01,2013-03-16 10:25:00,
2013-03-16 03:30:00,47.4,44.6,30.10,SSE,163,7.0,7.0,90,0.00,,---,0.00,VWS V14.01,2013-03-16 10:30:00,
2013-03-16 03:35:00,47.3,44.5,30.09,South,169,2.0,7.0,90,0.00,,---,0.00,VWS V14.01,2013-03-16 10:35:00,
2013-03-16 03:40:00,47.3,44.5,30.09,SSE,149,3.0,7.0,90,0.00,,---,0.00,VWS V14.01,2013-03-16 10:40:00,
2013-03-16 03:45:00,47.3,44.5,30.09,SW,214,4.0,6.0,90,0.00,,---,0.00,VWS V14.01,2013-03-16 10:45:00,
2013-03-16 03:50:00,47.2,44.4,30.09,SE,145,3.0,6.0,90,0.00,,---,0.00,VWS V14.01,2013-03-16 10:50:00,
2013-03-16 03:55:00,47.2,44.4,30.09,SSE,165,1.0,6.0,90,0.00,,---,0.00,VWS V14.01,2013-03-16 10:55:00,
2013-03-16 04:00:00,47.2,44.4,30.08,SSE,162,0.0,3.0,90,0.00,,---,0.00,VWS V14.01,2013-03-16 11:00:00,
2013-03-16 04:02:00,47.2,44.4,30.08,South,188,1.0,2.0,90,0.00,,---,0.00,VWS V14.01,2013-03-16 11:02:00,
2013-03-16 04:05:00,47.2,44.4,30.08,SSE,165,2.0,4.0,90,0.00,,---,0.00,VWS V14.01,2013-03-16 11:05:00,
2013-03-16 04:07:00,47.2,44.4,30.08,SW,226,2.0,5.0,90,0.00,,---,0.00,VWS V14.01,2013-03-16 11:07:00,
2013-03-16 04:10:00,47.2,44.4,30.08,South,188,1.0,6.0,90,0.00,,---,0.00,VWS V14.01,2013-03-16 11:10:00,
2013-03-16 04:12:00,47.2,44.4,30.08,SSE,167,0.0,5.0,90,0.00,,---,0.00,VWS V14.01,2013-03-16 11:12:00,
2013-03-16 04:15:00,47.2,44.4,30.08,SW,215,4.0,8.0,90,0.00,,---,0.00,VWS V14.01,2013-03-16 11:15:00,
2013-03-16 04:17:00,47.2,44.4,30.08,SSE,160,2.0,4.0,90,0.00,,---,0.00,VWS V14.01,2013-03-16 11:17:00,
2013-03-16 04:20:00,47.2,44.4,30.08,SE,146,4.0,6.0,90,0.00,,---,0.00,VWS V14.01,2013-03-16 11:20:00,
2013-03-16 04:22:00,47.2,44.4,30.08,South,169,2.0,5.0,90,0.00,,---,0.00,VWS V14.01,2013-03-16 11:22:00,
2013-03-16 04:25:00,47.3,44.5,30.08,South,169,3.0,10.0,90,0.00,,---,0.00,VWS V14.01,2013-03-16 11:25:00,
2013-03-16 04:27:00,47.3,44.5,30.08,SSE,158,4.0,4.0,90,0.00,,---,0.00,VWS V14.01,2013-03-16 11:27:00,
2013-03-16 04:30:00,47.3,44.5,30.08,SSE,158,1.0,5.0,90,0.00,,---,0.00,VWS V14.01,2013-03-16 11:30:00,
2013-03-16 04:32:00,47.2,44.4,30.08,ESE,119,2.0,2.0,90,0.00,,---,0.00,VWS V14.01,2013-03-16 11:32:00,
2013-03-16 04:35:00,47.2,44.4,30.07,SW,227,1.0,7.0,90,0.00,,---,0.00,VWS V14.01,2013-03-16 11:35:00,
2013-03-16 04:37:00,47.2,44.4,30.07,SSE,148,3.0,3.0,90,0.00,,---,0.00,VWS V14.01,2013-03-16 11:37:00,
2013-03-16 04:40:00,47.2,44.4,30.07,SSW,201,6.0,8.0,90,0.00,,---,0.00,VWS V14.01,2013-03-16 11:40:00,
2013-03-16 04:42:00,47.2,44.4,30.07,SSE,150,2.0,6.0,90,0.00,,---,0.00,VWS V14.01,2013-03-16 11:42:00,
2013-03-16 04:45:00,47.2,44.4,30.07,SE,146,1.0,6.0,90,0.00,,---,0.00,VWS V14.01,2013-03-16 11:45:00,
2013-03-16 04:47:00,47.2,44.4,30.07,NW,307,1.0,3.0,90,0.00,,---,0.00,VWS V14.01,2013-03-16 11:47:00,
2013-03-16 04:50:00,47.1,44.3,30.07,South,189,2.0,6.0,90,0.00,,---,0.00,VWS V14.01,2013-03-16 11:50:00,
2013-03-16 04:52:00,47.1,44.3,30.07,SW,221,0.0,3.0,90,0.00,,---,0.00,VWS V14.01,2013-03-16 11:52:00,
2013-03-16 04:55:00,47.1,44.3,30.07,WSW,238,3.0,5.0,90,0.00,,---,0.00,VWS V14.01,2013-03-16 11:55:00,
2013-03-16 04:57:00,47.1,44.3,30.07,WSW,252,1.0,7.0,90,0.00,,---,0.00,VWS V14.01,2013-03-16 11:57:00,
2013-03-16 05:00:00,47.1,44.3,30.07,SSW,197,2.0,7.0,90,0.00,,---,0.00,VWS V14.01,2013-03-16 12:00:00,
2013-03-16 05:02:00,47.0,44.2,30.07,WSW,237,2.0,10.0,90,0.00,,---,0.00,VWS V14.01,2013-03-16 12:02:00,
2013-03-16 05:05:00,47.0,44.2,30.07,SSW,208,2.0,10.0,90,0.00,,---,0.00,VWS V14.01,2013-03-16 12:05:00,
2013-03-16 05:07:00,47.0,44.2,30.06,SSE,153,4.0,4.0,90,0.00,,---,0.00,VWS V14.01,2013-03-16 12:07:00,
2013-03-16 05:10:00,47.0,44.2,30.06,SSE,158,1.0,8.0,90,0.00,,---,0.00,VWS V14.01,2013-03-16 12:10:00,
2013-03-16 05:12:00,47.0,44.2,30.06,SSE,154,2.0,7.0,90,0.00,,---,0.00,VWS V14.01,2013-03-16 12:12:00,
2013-03-16 05:15:00,47.0,44.2,30.06,SW,229,2.0,8.0,90,0.00,,---,0.00,VWS V14.01,2013-03-16 12:15:00,
2013-03-16 05:17:00,47.0,44.2,30.06,South,188,2.0,4.0,90,0.00,,---,0.00,VWS V14.01,2013-03-16 12:17:00,
2013-03-16 05:20:00,47.0,44.2,30.06,West,278,1.0,7.0,90,0.00,,---,0.00,VWS V14.01,2013-03-16 12:20:00,
2013-03-16 05:22:00,47.0,44.2,30.06,South,185,7.0,7.0,90,0.00,,---,0.00,VWS V14.01,2013-03-16 12:22:00,
2013-03-16 05:25:00,47.0,44.2,30.06,SSE,151,0.0,7.0,90,0.00,,---,0.00,VWS V14.01,2013-03-16 12:25:00,
2013-03-16 05:27:00,47.0,44.5,30.06,SSE,163,1.0,2.0,91,0.00,,---,0.00,VWS V14.01,2013-03-16 12:27:00,
2013-03-16 05:30:00,46.9,44.1,30.06,SSE,153,1.0,8.0,90,0.00,,---,0.00,VWS V14.01,2013-03-16 12:30:00,
2013-03-16 05:32:00,46.9,44.1,30.06,SSE,162,1.0,7.0,90,0.00,,---,0.00,VWS V14.01,2013-03-16 12:32:00,
2013-03-16 05:35:00,47.0,44.2,30.06,SSE,165,3.0,7.0,90,0.00,,---,0.00,VWS V14.01,2013-03-16 12:35:00,
2013-03-16 05:37:00,46.9,44.1,30.06,SSW,210,2.0,8.0,90,0.00,,---,0.00,VWS V14.01,2013-03-16 12:37:00,
2013-03-16 05:40:00,46.9,44.1,30.06,West,269,2.0,8.0,90,0.00,,---,0.00,VWS V14.01,2013-03-16 12:40:00,
2013-03-16 05:42:00,46.9,44.1,30.06,SE,135,1.0,3.0,90,0.00,,---,0.00,VWS V14.01,2013-03-16 12:42:00,
2013-03-16 05:45:00,46.9,44.1,30.06,South,185,1.0,9.0,90,0.00,,---,0.00,VWS V14.01,2013-03-16 12:45:00,
2013-03-16 05:47:00,46.9,44.1,30.05,SSW,195,1.0,4.0,90,0.00,,---,0.00,VWS V14.01,2013-03-16 12:47:00,
2013-03-16 05:50:00,46.9,44.1,30.05,SSE,155,3.0,12.0,90,0.00,,---,0.00,VWS V14.01,2013-03-16 12:50:00,
2013-03-16 05:52:00,46.8,44.0,30.05,SSE,158,1.0,5.0,90,0.00,,---,0.00,VWS V14.01,2013-03-16 12:52:00,
2013-03-16 05:55:00,46.8,44.0,30.05,SSE,164,4.0,5.0,90,0.00,,---,0.00,VWS V14.01,2013-03-16 12:55:00,
2013-03-16 05:57:00,46.8,44.0,30.05,South,180,4.0,10.0,90,0.00,,---,0.00,VWS V14.01,2013-03-16 12:57:00,
2013-03-16 06:00:00,46.7,43.9,30.05,South,188,7.0,10.0,90,0.00,,---,0.00,VWS V14.01,2013-03-16 13:00:00,
2013-03-16 06:02:00,46.8,44.0,30.05,SW,218,2.0,7.0,90,0.00,,---,0.00,VWS V14.01,2013-03-16 13:02:00,
2013-03-16 06:05:00,46.7,43.6,30.05,South,179,3.0,9.0,89,0.00,,---,0.00,VWS V14.01,2013-03-16 13:05:00,
2013-03-16 06:07:00,46.8,43.7,30.05,South,183,4.0,5.0,89,0.00,,---,0.00,VWS V14.01,2013-03-16 13:07:00,
2013-03-16 06:10:00,46.8,43.7,30.05,SSE,154,4.0,12.0,89,0.00,,---,0.00,VWS V14.01,2013-03-16 13:10:00,
2013-03-16 06:12:00,46.8,43.7,30.05,South,177,7.0,14.0,89,0.00,,---,0.00,VWS V14.01,2013-03-16 13:12:00,
2013-03-16 06:15:00,46.9,43.5,30.05,SE,130,8.0,15.0,88,0.00,,---,0.00,VWS V14.01,2013-03-16 13:15:00,
2013-03-16 06:17:00,46.9,43.5,30.05,SSE,158,3.0,10.0,88,0.00,,---,0.00,VWS V14.01,2013-03-16 13:17:00,
2013-03-16 06:20:00,46.9,43.8,30.05,SE,131,10.0,10.0,89,0.00,,---,0.00,VWS V14.01,2013-03-16 13:20:00,
2013-03-16 06:22:00,46.9,43.8,30.05,SSE,165,3.0,10.0,89,0.00,,---,0.00,VWS V14.01,2013-03-16 13:22:00,
2013-03-16 06:25:00,47.0,43.9,30.04,South,176,7.0,10.0,89,0.00,,---,0.00,VWS V14.01,2013-03-16 13:25:00,
2013-03-16 06:27:00,47.0,43.9,30.04,SSE,162,6.0,9.0,89,0.00,,---,0.00,VWS V14.01,2013-03-16 13:27:00,
2013-03-16 06:30:00,47.0,43.6,30.04,SSW,193,2.0,13.0,88,0.00,,---,0.00,VWS V14.01,2013-03-16 13:30:00,
2013-03-16 06:32:00,47.0,43.6,30.04,WSW,238,2.0,10.0,88,0.00,,---,0.00,VWS V14.01,2013-03-16 13:32:00,
2013-03-16 06:35:00,47.0,43.9,30.04,ENE,75,0.0,10.0,89,0.00,,---,0.00,VWS V14.01,2013-03-16 13:35:00,
2013-03-16 06:37:00,47.0,43.9,30.03,South,179,1.0,5.0,89,0.00,,---,0.00,VWS V14.01,2013-03-16 13:37:00,
2013-03-16 06:40:00,46.9,43.8,30.03,SSE,165,3.0,9.0,89,0.00,,---,0.00,VWS V14.01,2013-03-16 13:40:00,
2013-03-16 06:42:00,46.9,43.8,30.03,SE,137,3.0,7.0,89,0.00,,---,0.00,VWS V14.01,2013-03-16 13:42:00,
2013-03-16 06:45:00,46.8,43.7,30.03,SSE,168,4.0,7.0,89,0.00,,---,0.00,VWS V14.01,2013-03-16 13:45:00,
2013-03-16 06:47:00,46.8,43.7,30.03,WSW,254,2.0,8.0,89,0.00,,---,0.00,VWS V14.01,2013-03-16 13:47:00,
2013-03-16 06:50:00,46.7,43.6,30.03,South,187,3.0,8.0,89,0.00,,---,0.00,VWS V14.01,2013-03-16 13:50:00,
2013-03-16 06:52:00,46.7,43.6,30.03,South,179,5.0,5.0,89,0.00,,---,0.00,VWS V14.01,2013-03-16 13:52:00,
2013-03-16 06:55:00,46.7,43.6,30.03,South,189,2.0,11.0,89,0.00,,---,0.00,VWS V14.01,2013-03-16 13:55:00,
2013-03-16 06:57:00,46.6,43.5,30.03,SSW,205,1.0,5.0,89,0.00,,---,0.00,VWS V14.01,2013-03-16 13:57:00,
2013-03-16 07:00:00,46.6,43.5,30.03,South,181,2.0,7.0,89,0.00,,---,0.00,VWS V14.01,2013-03-16 14:00:00,
2013-03-16 07:02:00,46.6,43.5,30.03,SE,133,1.0,5.0,89,0.00,,---,0.00,VWS V14.01,2013-03-16 14:02:00,
2013-03-16 07:05:00,46.5,43.4,30.03,WSW,257,1.0,6.0,89,0.00,,---,0.00,VWS V14.01,2013-03-16 14:05:00,
2013-03-16 07:07:00,46.5,43.4,30.03,SE,142,2.0,8.0,89,0.00,,---,0.00,VWS V14.01,2013-03-16 14:07:00,
2013-03-16 07:10:00,46.5,43.4,30.03,South,191,4.0,11.0,89,0.00,,---,0.00,VWS V14.01,2013-03-16 14:10:00,
2013-03-16 07:12:00,46.5,43.4,30.03,SSE,154,5.0,7.0,89,0.00,,---,0.00,VWS V14.01,2013-03-16 14:12:00,
2013-03-16 07:15:00,46.5,43.4,30.03,SSE,159,6.0,9.0,89,0.00,,---,0.00,VWS V14.01,2013-03-16 14:15:00,
2013-03-16 07:17:00,46.6,43.2,30.03,South,178,8.0,10.0,88,0.00,,---,0.00,VWS V14.01,2013-03-16 14:17:00,
2013-03-16 07:20:00,46.6,43.2,30.03,South,186,2.0,10.0,88,0.00,,---,0.00,VWS V14.01,2013-03-16 14:20:00,
2013-03-16 07:22:00,46.6,43.2,30.03,SSE,159,3.0,7.0,88,0.00,,---,0.00,VWS V14.01,2013-03-16 14:22:00,
2013-03-16 07:25:00,46.6,43.2,30.03,South,174,6.0,9.0,88,0.00,,---,0.00,VWS V14.01,2013-03-16 14:25:00,
2013-03-16 07:27:00,46.6,43.2,30.03,SE,145,1.0,10.0,88,0.00,,---,0.00,VWS V14.01,2013-03-16 14:27:00,
2013-03-16 07:30:00,46.6,43.2,30.03,SE,139,0.0,10.0,88,0.00,,---,0.00,VWS V14.01,2013-03-16 14:30:00,
2013-03-16 07:32:00,46.6,43.2,30.03,SW,215,3.0,8.0,88,0.00,,---,0.00,VWS V14.01,2013-03-16 14:32:00,
2013-03-16 07:35:00,46.7,43.3,30.03,SSW,199,7.0,8.0,88,0.00,,---,0.00,VWS V14.01,2013-03-16 14:35:00,
2013-03-16 07:37:00,46.7,43.3,30.03,SE,127,4.0,8.0,88,0.00,,---,0.00,VWS V14.01,2013-03-16 14:37:00,
2013-03-16 07:40:00,46.7,43.3,30.03,SE,131,3.0,8.0,88,0.00,,---,0.00,VWS V14.01,2013-03-16 14:40:00,
2013-03-16 07:42:00,46.7,43.3,30.03,SSE,159,8.0,8.0,88,0.00,,---,0.00,VWS V14.01,2013-03-16 14:42:00,
2013-03-16 07:45:00,46.7,43.3,30.03,South,169,4.0,11.0,88,0.00,,---,0.00,VWS V14.01,2013-03-16 14:45:00,
2013-03-16 07:47:00,46.7,43.3,30.03,WSW,241,3.0,11.0,88,0.00,,---,0.00,VWS V14.01,2013-03-16 14:47:00,
2013-03-16 07:50:00,46.7,43.3,30.03,SE,126,1.0,12.0,88,0.00,,---,0.00,VWS V14.01,2013-03-16 14:50:00,
2013-03-16 07:52:00,46.7,43.3,30.03,SSE,159,2.0,9.0,88,0.00,,---,0.00,VWS V14.01,2013-03-16 14:52:00,
2013-03-16 07:55:00,46.7,43.3,30.03,WSW,245,1.0,9.0,88,0.00,,---,0.00,VWS V14.01,2013-03-16 14:55:00,
2013-03-16 07:57:00,46.6,43.2,30.03,South,176,9.0,9.0,88,0.00,,---,0.00,VWS V14.01,2013-03-16 14:57:00,
2013-03-16 08:00:00,46.6,43.2,30.02,SE,136,3.0,11.0,88,0.00,,---,0.00,VWS V14.01,2013-03-16 15:00:00,
2013-03-16 08:02:00,46.6,43.2,30.03,NNW,345,2.0,8.0,88,0.00,,---,0.00,VWS V14.01,2013-03-16 15:02:00,
2013-03-16 08:05:00,46.6,43.2,30.03,WSW,248,3.0,8.0,88,0.00,,---,0.00,VWS V14.01,2013-03-16 15:05:00,
2013-03-16 08:07:00,46.6,43.2,30.03,South,173,2.0,3.0,88,0.00,,---,0.00,VWS V14.01,2013-03-16 15:07:00,
2013-03-16 08:10:00,46.6,43.2,30.02,SE,141,7.0,7.0,88,0.00,,---,0.00,VWS V14.01,2013-03-16 15:10:00,
2013-03-16 08:12:00,46.6,43.2,30.02,SSE,160,7.0,11.0,88,0.00,,---,0.00,VWS V14.01,2013-03-16 15:12:00,
2013-03-16 08:15:00,46.7,43.3,30.02,SW,218,2.0,11.0,88,0.00,,---,0.00,VWS V14.01,2013-03-16 15:15:00,
2013-03-16 08:17:00,46.7,43.3,30.02,South,190,1.0,11.0,88,0.00,,---,0.00,VWS V14.01,2013-03-16 15:17:00,
2013-03-16 08:20:00,46.7,43.3,30.02,South,174,3.0,11.0,88,0.00,,---,0.00,VWS V14.01,2013-03-16 15:20:00,
2013-03-16 08:22:00,46.7,43.3,30.02,WSW,250,2.0,6.0,88,0.00,,---,0.00,VWS V14.01,2013-03-16 15:22:00,
2013-03-16 08:25:00,46.6,43.2,30.02,South,184,3.0,9.0,88,0.00,,---,0.00,VWS V14.01,2013-03-16 15:25:00,
2013-03-16 08:27:00,46.6,43.2,30.02,SSE,165,4.0,7.0,88,0.00,,---,0.00,VWS V14.01,2013-03-16 15:27:00,
2013-03-16 08:30:00,46.6,43.2,30.02,ESE,123,4.0,10.0,88,0.00,,---,0.00,VWS V14.01,2013-03-16 15:30:00,
2013-03-16 08:32:00,46.6,43.2,30.02,SSE,166,7.0,9.0,88,0.00,,---,0.00,VWS V14.01,2013-03-16 15:32:00,
2013-03-16 08:35:00,46.7,43.3,30.02,WSW,252,3.0,9.0,88,0.00,,---,0.00,VWS V14.01,2013-03-16 15:35:00,
2013-03-16 08:37:00,46.7,43.3,30.02,SSW,195,2.0,4.0,88,0.00,,---,0.00,VWS V14.01,2013-03-16 15:37:00,
2013-03-16 08:40:00,46.7,43.3,30.01,SSW,193,8.0,8.0,88,0.00,,---,0.00,VWS V14.01,2013-03-16 15:40:00,
2013-03-16 08:42:00,46.7,43.3,30.01,SSW,198,8.0,10.0,88,0.00,,---,0.00,VWS V14.01,2013-03-16 15:42:00,
2013-03-16 08:45:00,46.7,43.3,30.02,South,186,2.0,11.0,88,0.00,,---,0.00,VWS V14.01,2013-03-16 15:45:00,
2013-03-16 08:47:00,46.7,43.3,30.02,SW,216,9.0,9.0,88,0.00,,---,0.00,VWS V14.01,2013-03-16 15:47:00,
2013-03-16 08:50:00,46.7,43.3,30.01,South,176,3.0,12.0,88,0.00,,---,0.00,VWS V14.01,2013-03-16 15:50:00,
2013-03-16 08:52:00,46.7,43.3,30.01,SSE,168,1.0,17.0,88,0.00,,---,0.00,VWS V14.01,2013-03-16 15:52:00,
2013-03-16 08:55:00,46.7,43.6,30.01,SSE,158,5.0,17.0,89,0.00,,---,0.00,VWS V14.01,2013-03-16 15:55:00,
2013-03-16 08:57:00,46.7,43.6,30.01,WNW,285,3.0,11.0,89,0.00,,---,0.00,VWS V14.01,2013-03-16 15:57:00,
2013-03-16 09:00:00,46.7,43.6,30.01,SSE,160,6.0,12.0,89,0.00,,---,0.00,VWS V14.01,2013-03-16 16:00:00,
2013-03-16 09:02:00,46.7,43.6,30.01,SE,143,3.0,8.0,89,0.00,,---,0.00,VWS V14.01,2013-03-16 16:02:00,
2013-03-16 09:05:00,46.7,43.6,30.01,SSW,208,1.0,11.0,89,0.00,,---,0.00,VWS V14.01,2013-03-16 16:05:00,
2013-03-16 09:07:00,46.8,43.7,30.02,SE,135,7.0,10.0,89,0.00,,---,0.00,VWS V14.01,2013-03-16 16:07:00,
2013-03-16 09:10:00,46.8,43.7,30.01,SW,218,3.0,12.0,89,0.00,,---,0.00,VWS V14.01,2013-03-16 16:10:00,
2013-03-16 09:12:00,46.8,43.7,30.02,SE,141,3.0,4.0,89,0.00,,---,0.00,VWS V14.01,2013-03-16 16:12:00,
2013-03-16 09:15:00,46.8,43.7,30.02,SSE,167,7.0,8.0,89,0.00,,---,0.00,VWS V14.01,2013-03-16 16:15:00,
2013-03-16 09:17:00,46.9,43.5,30.02,NW,322,4.0,11.0,88,0.00,,---,0.00,VWS V14.01,2013-03-16 16:17:00,
2013-03-16 09:20:00,46.9,43.5,30.02,SE,141,3.0,12.0,88,0.00,,---,0.00,VWS V14.01,2013-03-16 16:20:00,
2013-03-16 09:22:00,46.9,43.5,30.02,SSE,165,8.0,8.0,88,0.00,,---,0.00,VWS V14.01,2013-03-16 16:22:00,
2013-03-16 09:25:00,47.0,43.6,30.01,SSW,206,6.0,9.0,88,0.00,,---,0.00,VWS V14.01,2013-03-16 16:25:00,
2013-03-16 09:27:00,47.0,43.6,30.01,SSW,209,8.0,15.0,88,0.00,,---,0.00,VWS V14.01,2013-03-16 16:27:00,
2013-03-16 09:30:00,47.0,43.6,30.01,SSW,210,6.0,15.0,88,0.00,,---,0.00,VWS V14.01,2013-03-16 16:30:00,
2013-03-16 09:32:00,47.0,43.6,30.01,SSE,163,7.0,7.0,88,0.00,,---,0.00,VWS V14.01,2013-03-16 16:32:00,
2013-03-16 09:35:00,47.1,43.7,30.01,WNW,295,5.0,9.0,88,0.00,,---,0.00,VWS V14.01,2013-03-16 16:35:00,
2013-03-16 09:37:00,47.1,43.7,30.01,SSE,166,5.0,7.0,88,0.00,,---,0.00,VWS V14.01,2013-03-16 16:37:00,
2013-03-16 09:40:00,47.1,43.7,30.01,SSE,166,3.0,11.0,88,0.00,,---,0.00,VWS V14.01,2013-03-16 16:40:00,
2013-03-16 09:42:00,47.1,43.7,30.01,South,180,12.0,13.0,88,0.00,,---,0.00,VWS V14.01,2013-03-16 16:42:00,
2013-03-16 09:45:00,47.1,44.0,30.01,SSE,167,2.0,16.0,89,0.00,,---,0.00,VWS V14.01,2013-03-16 16:45:00,
2013-03-16 09:47:00,47.1,43.7,30.01,WSW,253,2.0,7.0,88,0.00,,---,0.00,VWS V14.01,2013-03-16 16:47:00,
2013-03-16 09:50:00,47.1,44.0,30.01,SW,235,1.0,13.0,89,0.00,,---,0.00,VWS V14.01,2013-03-16 16:50:00,
2013-03-16 09:52:00,47.2,44.1,30.01,South,169,5.0,10.0,89,0.00,,---,0.00,VWS V14.01,2013-03-16 16:52:00,
2013-03-16 09:55:00,47.1,43.4,30.00,WSW,249,3.0,13.0,87,0.00,,---,0.00,VWS V14.01,2013-03-16 16:55:00,
2013-03-16 09:57:00,47.2,43.5,30.00,WSW,238,3.0,6.0,87,0.00,,---,0.00,VWS V14.01,2013-03-16 16:57:00,
2013-03-16 10:00:00,47.2,43.5,30.00,West,264,5.0,12.0,87,0.00,,---,0.00,VWS V14.01,2013-03-16 17:00:00,
2013-03-16 10:02:00,47.2,43.5,30.00,South,181,8.0,8.0,87,0.00,,---,0.00,VWS V14.01,2013-03-16 17:02:00,
2013-03-16 10:05:00,47.3,43.6,30.00,South,174,9.0,9.0,87,0.00,,---,0.00,VWS V14.01,2013-03-16 17:05:00,
2013-03-16 10:07:00,47.3,43.6,30.00,South,176,11.0,11.0,87,0.00,,---,0.00,VWS V14.01,2013-03-16 17:07:00,
2013-03-16 10:10:00,47.3,43.6,30.00,South,178,2.0,14.0,87,0.00,,---,0.00,VWS V14.01,2013-03-16 17:10:00,
2013-03-16 10:12:00,47.4,43.4,30.00,SSE,155,10.0,10.0,86,0.00,,---,0.00,VWS V14.01,2013-03-16 17:12:00,
2013-03-16 10:15:00,47.4,43.4,30.00,WSW,250,3.0,13.0,86,0.00,,---,0.00,VWS V14.01,2013-03-16 17:15:00,
2013-03-16 10:17:00,47.3,43.3,30.00,South,191,5.0,11.0,86,0.00,,---,0.00,VWS V14.01,2013-03-16 17:17:00,
2013-03-16 10:20:00,47.4,43.4,30.00,SW,224,2.0,13.0,86,0.00,,---,0.00,VWS V14.01,2013-03-16 17:20:00,
2013-03-16 10:22:00,47.5,43.5,30.00,South,183,3.0,8.0,86,0.00,,---,0.00,VWS V14.01,2013-03-16 17:22:00,
2013-03-16 10:25:00,47.5,43.5,30.00,WSW,248,3.0,10.0,86,0.00,,---,0.00,VWS V14.01,2013-03-16 17:25:00,
2013-03-16 10:27:00,47.5,43.5,30.00,SW,217,4.0,6.0,86,0.00,,---,0.00,VWS V14.01,2013-03-16 17:27:00,
2013-03-16 10:30:00,47.6,43.6,30.00,West,260,3.0,10.0,86,0.00,,---,0.00,VWS V14.01,2013-03-16 17:30:00,
2013-03-16 10:32:00,47.6,43.6,30.00,SSW,192,2.0,8.0,86,0.00,,---,0.00,VWS V14.01,2013-03-16 17:32:00,
2013-03-16 10:35:00,47.6,43.6,30.00,West,263,4.0,11.0,86,0.00,,---,0.00,VWS V14.01,2013-03-16 17:35:00,
2013-03-16 10:37:00,47.6,43.6,30.00,WSW,258,4.0,8.0,86,0.00,,---,0.00,VWS V14.01,2013-03-16 17:37:00,
2013-03-16 10:40:00,47.6,43.6,30.00,SSW,198,3.0,14.0,86,0.00,,---,0.00,VWS V14.01,2013-03-16 17:40:00,
2013-03-16 10:42:00,47.6,43.6,30.00,ESE,117,3.0,4.0,86,0.00,,---,0.00,VWS V14.01,2013-03-16 17:42:00,
2013-03-16 10:45:00,47.6,43.6,30.00,SW,217,1.0,12.0,86,0.00,,---,0.00,VWS V14.01,2013-03-16 17:45:00,
2013-03-16 10:47:00,47.6,43.6,30.00,SSE,155,2.0,6.0,86,0.00,,---,0.00,VWS V14.01,2013-03-16 17:47:00,
2013-03-16 10:50:00,47.7,43.7,30.00,SSW,205,7.0,8.0,86,0.00,,---,0.00,VWS V14.01,2013-03-16 17:50:00,
2013-03-16 10:52:00,47.8,43.8,29.99,SW,221,3.0,13.0,86,0.00,,---,0.00,VWS V14.01,2013-03-16 17:52:00,
2013-03-16 10:55:00,47.7,43.7,29.99,SSW,194,1.0,13.0,86,0.00,,---,0.00,VWS V14.01,2013-03-16 17:55:00,
2013-03-16 10:57:00,47.7,43.7,29.99,WSW,246,1.0,3.0,86,0.00,,---,0.00,VWS V14.01,2013-03-16 17:57:00,
2013-03-16 11:00:00,47.8,43.8,29.99,SW,219,2.0,8.0,86,0.00,,---,0.00,VWS V14.01,2013-03-16 18:00:00,
2013-03-16 11:02:00,47.8,43.8,29.99,SW,226,1.0,10.0,86,0.00,,---,0.00,VWS V14.01,2013-03-16 18:02:00,
2013-03-16 11:05:00,47.9,43.9,29.99,WNW,288,2.0,10.0,86,0.00,,---,0.00,VWS V14.01,2013-03-16 18:05:00,
2013-03-16 11:07:00,47.9,43.6,29.99,SSE,156,8.0,12.0,85,0.00,,---,0.00,VWS V14.01,2013-03-16 18:07:00,
2013-03-16 11:10:00,48.1,44.1,29.99,South,176,12.0,12.0,86,0.00,,---,0.00,VWS V14.01,2013-03-16 18:10:00,
2013-03-16 11:12:00,48.1,43.8,29.98,ESE,107,6.0,16.0,85,0.00,,---,0.00,VWS V14.01,2013-03-16 18:12:00,
2013-03-16 11:15:00,48.2,43.9,29.99,SSE,160,2.0,16.0,85,0.00,,---,0.00,VWS V14.01,2013-03-16 18:15:00,
2013-03-16 11:17:00,48.2,43.9,29.99,SSE,167,6.0,6.0,85,0.00,,---,0.00,VWS V14.01,2013-03-16 18:17:00,
2013-03-16 11:20:00,48.3,43.7,29.99,South,188,3.0,10.0,84,0.00,,---,0.00,VWS V14.01,2013-03-16 18:20:00,
2013-03-16 11:22:00,48.3,43.7,29.99,SSE,155,6.0,12.0,84,0.00,,---,0.00,VWS V14.01,2013-03-16 18:22:00,
2013-03-16 11:25:00,48.4,43.8,29.99,South,171,8.0,12.0,84,0.00,,---,0.00,VWS V14.01,2013-03-16 18:25:00,
2013-03-16 11:27:00,48.5,43.9,29.98,West,266,4.0,11.0,84,0.00,,---,0.00,VWS V14.01,2013-03-16 18:27:00,
2013-03-16 11:30:00,48.7,43.8,29.98,SSW,201,2.0,11.0,83,0.00,,---,0.00,VWS V14.01,2013-03-16 18:30:00,
2013-03-16 11:32:00,48.7,43.8,29.98,South,178,13.0,15.0,83,0.00,,---,0.00,VWS V14.01,2013-03-16 18:32:00,
2013-03-16 11:35:00,48.8,43.9,29.98,SSE,157,11.0,15.0,83,0.00,,---,0.00,VWS V14.01,2013-03-16 18:35:00,
2013-03-16 11:37:00,48.8,43.9,29.98,SSW,207,2.0,14.0,83,0.00,,---,0.00,VWS V14.01,2013-03-16 18:37:00,
2013-03-16 11:40:00,48.8,43.9,29.98,SW,227,11.0,15.0,83,0.00,,---,0.00,VWS V14.01,2013-03-16 18:40:00,
2013-03-16 11:42:00,48.7,44.1,29.98,SSE,165,4.0,11.0,84,0.00,,---,0.00,VWS V14.01,2013-03-16 18:42:00,
2013-03-16 11:45:00,48.6,44.0,29.98,South,171,8.0,17.0,84,0.00,,---,0.00,VWS V14.01,2013-03-16 18:45:00,
2013-03-16 11:47:00,48.6,44.3,29.98,SE,141,4.0,9.0,85,0.00,,---,0.00,VWS V14.01,2013-03-16 18:47:00,
2013-03-16 11:50:00,48.6,44.3,29.98,South,169,4.0,12.0,85,0.00,,---,0.00,VWS V14.01,2013-03-16 18:50:00,
2013-03-16 11:53:00,48.6,44.3,29.98,WSW,253,3.0,12.0,85,0.00,,---,0.00,VWS V14.01,2013-03-16 18:53:00,
2013-03-16 11:55:00,48.5,44.2,29.98,SSW,197,3.0,12.0,85,0.00,,---,0.00,VWS V14.01,2013-03-16 18:55:00,
2013-03-16 11:58:00,48.7,44.4,29.98,SW,219,3.0,8.0,85,0.00,,---,0.00,VWS V14.01,2013-03-16 18:58:00,
2013-03-16 12:00:00,49.0,44.7,29.97,ESE,107,4.0,10.0,85,0.00,,---,0.00,VWS V14.01,2013-03-16 19:00:00,
2013-03-16 12:03:00,49.0,44.7,29.97,SW,234,6.0,12.0,85,0.00,,---,0.00,VWS V14.01,2013-03-16 19:03:00,
2013-03-16 12:05:00,49.0,44.7,29.97,SW,224,3.0,12.0,85,0.00,,---,0.00,VWS V14.01,2013-03-16 19:05:00,
2013-03-16 12:08:00,49.2,44.6,29.97,SSE,158,3.0,13.0,84,0.00,,---,0.00,VWS V14.01,2013-03-16 19:08:00,
2013-03-16 12:10:00,49.3,44.7,29.97,SW,226,2.0,15.0,84,0.00,,---,0.00,VWS V14.01,2013-03-16 19:10:00,
2013-03-16 12:13:00,49.4,44.5,29.97,ENE,66,3.0,8.0,83,0.00,,---,0.00,VWS V14.01,2013-03-16 19:13:00,
2013-03-16 12:15:00,49.6,44.7,29.97,WSW,251,5.0,9.0,83,0.00,,---,0.00,VWS V14.01,2013-03-16 19:15:00,
2013-03-16 12:18:00,49.7,44.4,29.97,SSE,166,7.0,10.0,82,0.00,,---,0.00,VWS V14.01,2013-03-16 19:18:00,
2013-03-16 12:20:00,49.6,44.3,29.96,SSE,165,5.0,12.0,82,0.00,,---,0.00,VWS V14.01,2013-03-16 19:20:00,
2013-03-16 12:23:00,49.7,44.4,29.96,WNW,282,3.0,9.0,82,0.00,,---,0.00,VWS V14.01,2013-03-16 19:23:00,
2013-03-16 12:25:00,49.8,44.2,29.96,SW,219,4.0,9.0,81,0.00,,---,0.00,VWS V14.01,2013-03-16 19:25:00,
2013-03-16 12:28:00,49.7,44.1,29.96,SSE,156,11.0,12.0,81,0.00,,---,0.00,VWS V14.01,2013-03-16 19:28:00,
2013-03-16 12:30:00,49.7,44.1,29.96,South,173,6.0,16.0,81,0.00,,---,0.00,VWS V14.01,2013-03-16 19:30:00,
2013-03-16 12:33:00,49.6,44.0,29.96,SSW,198,5.0,14.0,81,0.00,,---,0.00,VWS V14.01,2013-03-16 19:33:00,
2013-03-16 12:35:00,49.4,43.5,29.95,South,181,11.0,14.0,80,0.00,,---,0.00,VWS V14.01,2013-03-16 19:35:00,
2013-03-16 12:38:00,49.3,43.7,29.95,SSE,159,7.0,16.0,81,0.00,,---,0.00,VWS V14.01,2013-03-16 19:38:00,
2013-03-16 12:40:00,49.2,43.6,29.95,South,172,8.0,16.0,81,0.00,,---,0.00,VWS V14.01,2013-03-16 19:40:00,
2013-03-16 12:43:00,49.3,43.7,29.95,SSE,167,5.0,14.0,81,0.00,,---,0.00,VWS V14.01,2013-03-16 19:43:00,
2013-03-16 12:45:00,49.3,43.7,29.95,SW,221,3.0,14.0,81,0.00,,---,0.00,VWS V14.01,2013-03-16 19:45:00,
2013-03-16 12:48:00,49.3,43.7,29.95,SW,219,5.0,10.0,81,0.00,,---,0.00,VWS V14.01,2013-03-16 19:48:00,
2013-03-16 12:50:00,49.3,43.7,29.95,SW,227,4.0,10.0,81,0.00,,---,0.00,VWS V14.01,2013-03-16 19:50:00,
2013-03-16 12:53:00,49.2,43.6,29.95,SSE,166,5.0,11.0,81,0.00,,---,0.00,VWS V14.01,2013-03-16 19:53:00,
2013-03-16 12:55:00,49.0,43.8,29.95,West,270,6.0,13.0,82,0.00,,---,0.00,VWS V14.01,2013-03-16 19:55:00,
2013-03-16 12:58:00,48.9,44.0,29.94,SW,226,6.0,13.0,83,0.00,,---,0.00,VWS V14.01,2013-03-16 19:58:00,
2013-03-16 13:00:00,49.0,43.8,29.94,SSE,157,7.0,18.0,82,0.00,,---,0.00,VWS V14.01,2013-03-16 20:00:00,
2013-03-16 13:03:00,49.0,44.1,29.94,SSW,195,5.0,15.0,83,0.00,,---,0.00,VWS V14.01,2013-03-16 20:03:00,
2013-03-16 13:05:00,49.0,43.8,29.94,WNW,285,3.0,15.0,82,0.00,,---,0.00,VWS V14.01,2013-03-16 20:05:00,
2013-03-16 13:08:00,49.0,44.1,29.94,SW,221,8.0,8.0,83,0.00,,---,0.00,VWS V14.01,2013-03-16 20:08:00,
2013-03-16 13:10:00,49.0,43.8,29.94,SSE,155,5.0,14.0,82,0.00,,---,0.00,VWS V14.01,2013-03-16 20:10:00,
2013-03-16 13:13:00,49.1,43.8,29.93,South,175,6.0,11.0,82,0.00,,---,0.00,VWS V14.01,2013-03-16 20:13:00,
2013-03-16 13:15:00,49.2,43.6,29.93,NW,316,3.0,12.0,81,0.00,,---,0.00,VWS V14.01,2013-03-16 20:15:00,
2013-03-16 13:18:00,49.2,43.6,29.93,SSW,210,6.0,9.0,81,0.00,,---,0.00,VWS V14.01,2013-03-16 20:18:00,
2013-03-16 13:20:00,49.1,43.5,29.93,SSW,193,7.0,14.0,81,0.00,,---,0.00,VWS V14.01,2013-03-16 20:20:00,
2013-03-16 13:23:00,49.1,43.5,29.93,SSW,208,4.0,10.0,81,0.00,,---,0.00,VWS V14.01,2013-03-16 20:23:00,
2013-03-16 13:25:00,49.1,43.5,29.93,SSW,208,6.0,13.0,81,0.00,,---,0.00,VWS V14.01,2013-03-16 20:25:00,
2013-03-16 13:28:00,49.2,43.6,29.93,South,180,4.0,10.0,81,0.00,,---,0.00,VWS V14.01,2013-03-16 20:28:00,
2013-03-16 13:30:00,49.4,43.8,29.92,South,188,4.0,15.0,81,0.00,,---,0.00,VWS V14.01,2013-03-16 20:30:00,
2013-03-16 13:33:00,49.5,43.9,29.92,SSW,195,3.0,9.0,81,0.00,,---,0.00,VWS V14.01,2013-03-16 20:33:00,
2013-03-16 13:35:00,49.5,44.2,29.92,South,177,3.0,9.0,82,0.00,,---,0.00,VWS V14.01,2013-03-16 20:35:00,
2013-03-16 13:38:00,49.6,44.0,29.92,SW,221,3.0,16.0,81,0.00,,---,0.00,VWS V14.01,2013-03-16 20:38:00,
2013-03-16 13:40:00,49.3,44.0,29.92,South,186,5.0,16.0,82,0.00,,---,0.00,VWS V14.01,2013-03-16 20:40:00,
2013-03-16 13:43:00,49.0,44.1,29.92,West,262,1.0,7.0,83,0.00,,---,0.00,VWS V14.01,2013-03-16 20:43:00,
2013-03-16 13:45:00,48.8,44.2,29.92,West,266,3.0,13.0,84,0.00,,---,0.00,VWS V14.01,2013-03-16 20:45:00,
2013-03-16 13:48:00,48.6,44.0,29.92,SW,227,2.0,9.0,84,0.00,,---,0.00,VWS V14.01,2013-03-16 20:48:00,
2013-03-16 13:50:00,48.3,44.6,29.91,South,182,4.0,11.0,87,0.00,,---,0.00,VWS V14.01,2013-03-16 20:50:00,
2013-03-16 13:53:00,48.1,44.4,29.92,WSW,243,4.0,12.0,87,0.00,,---,0.00,VWS V14.01,2013-03-16 20:53:00,
2013-03-16 13:55:00,47.7,44.3,29.91,SSE,153,6.0,15.0,88,0.01,,---,0.01,VWS V14.01,2013-03-16 20:55:00,
2013-03-16 13:58:00,47.5,44.4,29.91,WNW,290,9.0,16.0,89,0.01,,---,0.01,VWS V14.01,2013-03-16 20:58:00,
2013-03-16 14:00:00,47.3,44.5,29.91,SW,231,12.0,16.0,90,0.01,,---,0.01,VWS V14.01,2013-03-16 21:00:00,
2013-03-16 14:03:00,47.1,44.3,29.91,WNW,293,10.0,14.0,90,0.01,,---,0.01,VWS V14.01,2013-03-16 21:03:00,
2013-03-16 14:05:00,46.9,43.2,29.91,WSW,237,5.0,16.0,87,0.01,,---,0.01,VWS V14.01,2013-03-16 21:05:00,
2013-03-16 14:08:00,46.9,43.2,29.91,WSW,243,8.0,18.0,87,0.01,,---,0.01,VWS V14.01,2013-03-16 21:08:00,
2013-03-16 14:10:00,47.0,43.0,29.91,WNW,295,4.0,18.0,86,0.01,,---,0.01,VWS V14.01,2013-03-16 21:10:00,
2013-03-16 14:13:00,47.2,42.9,29.91,WSW,258,6.0,15.0,85,0.01,,---,0.01,VWS V14.01,2013-03-16 21:13:00,
2013-03-16 14:15:00,47.3,42.7,29.90,SW,229,6.0,17.0,84,0.01,,---,0.01,VWS V14.01,2013-03-16 21:15:00,
2013-03-16 14:18:00,47.5,43.2,29.90,SW,221,4.0,16.0,85,0.01,,---,0.01,VWS V14.01,2013-03-16 21:18:00,
2013-03-16 14:20:00,47.8,43.5,29.90,WSW,254,8.0,16.0,85,0.01,,---,0.01,VWS V14.01,2013-03-16 21:20:00,
2013-03-16 14:23:00,48.0,42.1,29.90,WSW,249,12.0,22.0,80,0.01,,---,0.01,VWS V14.01,2013-03-16 21:23:00,
2013-03-16 14:25:00,48.2,42.7,29.89,WNW,293,9.0,22.0,81,0.01,,---,0.01,VWS V14.01,2013-03-16 21:25:00,
2013-03-16 14:28:00,48.2,42.7,29.89,WSW,240,5.0,24.0,81,0.01,,---,0.01,VWS V14.01,2013-03-16 21:28:00,
2013-03-16 14:30:00,48.3,42.8,29.89,WSW,248,6.0,24.0,81,0.01,,---,0.01,VWS V14.01,2013-03-16 21:30:00,
2013-03-16 14:33:00,48.3,42.4,29.89,SSE,160,12.0,13.0,80,0.01,,---,0.01,VWS V14.01,2013-03-16 21:33:00,
2013-03-16 14:35:00,48.3,42.1,29.89,WSW,248,8.0,18.0,79,0.01,,---,0.01,VWS V14.01,2013-03-16 21:35:00,
2013-03-16 14:38:00,48.3,41.4,29.89,SW,217,6.0,22.0,77,0.01,,---,0.01,VWS V14.01,2013-03-16 21:38:00,
2013-03-16 14:40:00,48.3,41.1,29.89,WSW,250,15.0,22.0,76,0.01,,---,0.01,VWS V14.01,2013-03-16 21:40:00,
2013-03-16 14:43:00,48.3,41.1,29.89,SW,222,4.0,15.0,76,0.01,,---,0.01,VWS V14.01,2013-03-16 21:43:00,
2013-03-16 14:45:00,48.2,40.7,29.89,West,279,7.0,15.0,75,0.01,,---,0.01,VWS V14.01,2013-03-16 21:45:00,
2013-03-16 14:48:00,48.1,40.2,29.89,WSW,251,5.0,19.0,74,0.01,,---,0.01,VWS V14.01,2013-03-16 21:48:00,
2013-03-16 14:50:00,48.1,40.6,29.89,West,277,7.0,19.0,75,0.01,,---,0.01,VWS V14.01,2013-03-16 21:50:00,
2013-03-16 14:53:00,48.1,40.6,29.89,West,261,4.0,14.0,75,0.01,,---,0.01,VWS V14.01,2013-03-16 21:53:00,
2013-03-16 14:55:00,48.2,40.3,29.89,SW,235,8.0,15.0,74,0.01,,---,0.01,VWS V14.01,2013-03-16 21:55:00,
2013-03-16 14:58:00,48.3,40.4,29.89,WSW,255,5.0,18.0,74,0.00,,---,0.01,VWS V14.01,2013-03-16 21:58:00,
2013-03-16 15:00:00,48.5,40.6,29.89,WSW,238,12.0,18.0,74,0.00,,---,0.01,VWS V14.01,2013-03-16 22:00:00,
2013-03-16 15:03:00,48.6,41.0,29.89,SW,224,8.0,11.0,75,0.00,,---,0.01,VWS V14.01,2013-03-16 22:03:00,
2013-03-16 15:05:00,48.5,40.6,29.89,WSW,255,13.0,16.0,74,0.00,,---,0.01,VWS V14.01,2013-03-16 22:05:00,
2013-03-16 15:08:00,48.4,40.2,29.89,WSW,237,13.0,22.0,73,0.00,,---,0.01,VWS V14.01,2013-03-16 22:08:00,
2013-03-16 15:10:00,48.4,40.2,29.89,WNW,295,7.0,22.0,73,0.00,,---,0.01,VWS V14.01,2013-03-16 22:10:00,
2013-03-16 15:13:00,48.4,40.2,29.89,West,273,14.0,22.0,73,0.00,,---,0.01,VWS V14.01,2013-03-16 22:13:00,
2013-03-16 15:15:00,48.4,40.2,29.89,West,275,4.0,22.0,73,0.00,,---,0.01,VWS V14.01,2013-03-16 22:15:00,
2013-03-16 15:18:00,48.3,39.7,29.89,West,271,6.0,18.0,72,0.00,,---,0.01,VWS V14.01,2013-03-16 22:18:00,
2013-03-16 15:20:00,48.3,40.8,29.89,SW,234,6.0,18.0,75,0.00,,---,0.01,VWS V14.01,2013-03-16 22:20:00,
2013-03-16 15:23:00,48.4,40.8,29.89,WSW,239,7.0,13.0,75,0.00,,---,0.01,VWS V14.01,2013-03-16 22:23:00,
2013-03-16 15:25:00,48.4,40.5,29.89,SSE,159,4.0,17.0,74,0.00,,---,0.01,VWS V14.01,2013-03-16 22:25:00,
2013-03-16 15:28:00,48.3,40.8,29.88,WSW,252,3.0,14.0,75,0.00,,---,0.01,VWS V14.01,2013-03-16 22:28:00,
2013-03-16 15:30:00,48.4,40.8,29.89,SW,224,4.0,14.0,75,0.00,,---,0.01,VWS V14.01,2013-03-16 22:30:00,
2013-03-16 15:33:00,48.4,40.8,29.89,SSW,207,15.0,15.0,75,0.00,,---,0.01,VWS V14.01,2013-03-16 22:33:00,
2013-03-16 15:35:00,48.3,40.8,29.89,SSW,207,4.0,18.0,75,0.00,,---,0.01,VWS V14.01,2013-03-16 22:35:00,
2013-03-16 15:38:00,48.3,40.8,29.89,SW,232,2.0,12.0,75,0.00,,---,0.01,VWS V14.01,2013-03-16 22:38:00,
2013-03-16 15:40:00,48.2,40.7,29.89,SW,230,3.0,12.0,75,0.00,,---,0.01,VWS V14.01,2013-03-16 22:40:00,
2013-03-16 15:43:00,48.2,40.7,29.89,SW,231,4.0,15.0,75,0.00,,---,0.01,VWS V14.01,2013-03-16 22:43:00,
2013-03-16 15:45:00,48.2,40.7,29.89,WNW,288,4.0,15.0,75,0.00,,---,0.01,VWS V14.01,2013-03-16 22:45:00,
2013-03-16 15:48:00,48.2,40.3,29.89,SW,224,5.0,10.0,74,0.00,,---,0.01,VWS V14.01,2013-03-16 22:48:00,
2013-03-16 15:50:00,48.6,39.6,29.89,SSW,205,2.0,12.0,71,0.00,,---,0.01,VWS V14.01,2013-03-16 22:50:00,
2013-03-16 15:53:00,48.9,39.6,29.89,West,267,6.0,17.0,70,0.00,,---,0.01,VWS V14.01,2013-03-16 22:53:00,
2013-03-16 15:55:00,49.1,39.0,29.89,WSW,248,9.0,17.0,68,0.00,,---,0.01,VWS V14.01,2013-03-16 22:55:00,
2013-03-16 15:58:00,49.2,39.8,29.89,SSE,147,4.0,15.0,70,0.00,,---,0.01,VWS V14.01,2013-03-16 22:58:00,
2013-03-16 16:00:00,49.7,40.0,29.88,West,259,7.0,15.0,69,0.00,,---,0.01,VWS V14.01,2013-03-16 23:00:00,
2013-03-16 16:03:00,49.8,39.7,29.88,ESE,123,5.0,14.0,68,0.00,,---,0.01,VWS V14.01,2013-03-16 23:03:00,
2013-03-16 16:05:00,50.0,39.9,29.88,SW,231,13.0,17.0,68,0.00,,---,0.01,VWS V14.01,2013-03-16 23:05:00,
2013-03-16 16:08:00,50.0,39.5,29.88,SW,231,10.0,14.0,67,0.00,,---,0.01,VWS V14.01,2013-03-16 23:08:00,
2013-03-16 16:10:00,49.7,39.2,29.88,NW,308,9.0,20.0,67,0.00,,---,0.01,VWS V14.01,2013-03-16 23:10:00,
2013-03-16 16:13:00,49.4,39.3,29.88,WSW,241,3.0,20.0,68,0.00,,---,0.01,VWS V14.01,2013-03-16 23:13:00,
2013-03-16 16:15:00,49.6,39.9,29.88,WSW,243,2.0,20.0,69,0.00,,---,0.01,VWS V14.01,2013-03-16 23:15:00,
2013-03-16 16:18:00,49.5,39.8,29.89,WSW,252,4.0,15.0,69,0.00,,---,0.01,VWS V14.01,2013-03-16 23:18:00,
2013-03-16 16:20:00,49.2,39.8,29.89,WSW,246,2.0,15.0,70,0.00,,---,0.01,VWS V14.01,2013-03-16 23:20:00,
2013-03-16 16:23:00,49.0,39.3,29.89,SSW,205,3.0,11.0,69,0.00,,---,0.01,VWS V14.01,2013-03-16 23:23:00,
2013-03-16 16:25:00,48.7,39.0,29.89,SW,226,10.0,11.0,69,0.00,,---,0.01,VWS V14.01,2013-03-16 23:25:00,
2013-03-16 16:28:00,48.7,40.1,29.89,NNW,327,3.0,10.0,72,0.00,,---,0.01,VWS V14.01,2013-03-16 23:28:00,
2013-03-16 16:30:00,48.4,39.8,29.89,West,263,5.0,16.0,72,0.00,,---,0.01,VWS V14.01,2013-03-16 23:30:00,
2013-03-16 16:33:00,48.3,40.1,29.89,SE,145,1.0,6.0,73,0.00,,---,0.01,VWS V14.01,2013-03-16 23:33:00,
2013-03-16 16:35:00,48.2,40.0,29.88,SE,143,6.0,7.0,73,0.00,,---,0.01,VWS V14.01,2013-03-16 23:35:00,
2013-03-16 16:38:00,48.3,40.1,29.88,WSW,251,4.0,9.0,73,0.00,,---,0.01,VWS V14.01,2013-03-16 23:38:00,
2013-03-16 16:40:00,48.4,40.5,29.88,South,176,3.0,10.0,74,0.00,,---,0.01,VWS V14.01,2013-03-16 23:40:00,
2013-03-16 16:43:00,48.5,40.2,29.88,SSE,166,3.0,7.0,73,0.00,,---,0.01,VWS V14.01,2013-03-16 23:43:00,
2013-03-16 16:45:00,48.5,39.9,29.88,WSW,242,4.0,12.0,72,0.00,,---,0.01,VWS V14.01,2013-03-16 23:45:00,
2013-03-16 16:48:00,48.5,40.2,29.88,SE,142,3.0,13.0,73,0.00,,---,0.01,VWS V14.01,2013-03-16 23:48:00,
2013-03-16 16:50:00,48.6,40.3,29.88,WSW,249,4.0,13.0,73,0.00,,---,0.01,VWS V14.01,2013-03-16 23:50:00,
2013-03-16 16:53:00,48.4,39.8,29.88,SW,224,1.0,13.0,72,0.00,,---,0.01,VWS V14.01,2013-03-16 23:53:00,
2013-03-16 16:55:00,48.2,38.9,29.88,SSW,202,4.0,13.0,70,0.00,,---,0.01,VWS V14.01,2013-03-16 23:55:00,
2013-03-16 16:58:00,48.2,38.9,29.88,South,169,6.0,16.0,70,0.00,,---,0.01,VWS V14.01,2013-03-16 23:58:00,
2013-03-16 17:00:00,47.9,39.0,29.88,SW,221,16.0,19.0,71,0.00,,---,0.01,VWS V14.01,2013-03-17 00:00:00,
2013-03-16 17:03:00,47.4,38.8,29.88,WSW,248,9.0,16.0,72,0.00,,---,0.01,VWS V14.01,2013-03-17 00:03:00,
2013-03-16 17:05:00,46.8,38.3,29.88,WNW,283,3.0,18.0,72,0.00,,---,0.01,VWS V14.01,2013-03-17 00:05:00,
2013-03-16 17:08:00,46.7,38.5,29.88,West,265,2.0,14.0,73,0.00,,---,0.01,VWS V14.01,2013-03-17 00:08:00,
2013-03-16 17:10:00,46.4,38.2,29.88,South,169,3.0,14.0,73,0.00,,---,0.01,VWS V14.01,2013-03-17 00:10:00,
2013-03-16 17:13:00,46.3,38.1,29.88,WSW,243,8.0,12.0,73,0.00,,---,0.01,VWS V14.01,2013-03-17 00:13:00,
2013-03-16 17:15:00,46.2,38.4,29.88,West,266,8.0,12.0,74,0.00,,---,0.01,VWS V14.01,2013-03-17 00:15:00,
2013-03-16 17:18:00,46.1,37.9,29.88,SW,233,3.0,11.0,73,0.00,,---,0.01,VWS V14.01,2013-03-17 00:18:00,
2013-03-16 17:20:00,45.9,37.8,29.89,WSW,242,12.0,12.0,73,0.00,,---,0.01,VWS V14.01,2013-03-17 00:20:00,
2013-03-16 17:23:00,45.8,37.7,29.88,SSW,207,4.0,12.0,73,0.00,,---,0.01,VWS V14.01,2013-03-17 00:23:00,
2013-03-16 17:25:00,45.8,38.0,29.89,SSW,192,4.0,12.0,74,0.00,,---,0.01,VWS V14.01,2013-03-17 00:25:00,
2013-03-16 17:28:00,45.8,37.7,29.89,ESE,120,5.0,13.0,73,0.00,,---,0.01,VWS V14.01,2013-03-17 00:28:00,
2013-03-16 17:30:00,45.9,38.1,29.88,SE,145,4.0,13.0,74,0.00,,---,0.01,VWS V14.01,2013-03-17 00:30:00,
2013-03-16 17:33:00,46.0,38.2,29.88,West,266,0.0,7.0,74,0.00,,---,0.01,VWS V14.01,2013-03-17 00:33:00,
2013-03-16 17:35:00,46.2,38.0,29.88,WSW,239,3.0,10.0,73,0.00,,---,0.01,VWS V14.01,2013-03-17 00:35:00,
2013-03-16 17:38:00,46.3,36.7,29.88,SSW,213,4.0,13.0,69,0.00,,---,0.01,VWS V14.01,2013-03-17 00:38:00,
2013-03-16 17:40:00,46.3,36.0,29.88,SW,236,17.0,17.0,67,0.00,,---,0.01,VWS V14.01,2013-03-17 00:40:00,
2013-03-16 17:43:00,46.2,36.2,29.88,WSW,238,3.0,19.0,68,0.00,,---,0.01,VWS V14.01,2013-03-17 00:43:00,
2013-03-16 17:45:00,46.2,36.6,29.88,SSE,166,6.0,19.0,69,0.00,,---,0.01,VWS V14.01,2013-03-17 00:45:00,
2013-03-16 17:48:00,46.2,37.0,29.88,West,281,3.0,6.0,70,0.00,,---,0.01,VWS V14.01,2013-03-17 00:48:00,
2013-03-16 17:50:00,46.8,37.5,29.89,SW,231,2.0,12.0,70,0.00,,---,0.01,VWS V14.01,2013-03-17 00:50:00,
2013-03-16 17:53:00,47.2,37.6,29.89,South,174,2.0,7.0,69,0.00,,---,0.01,VWS V14.01,2013-03-17 00:53:00,
2013-03-16 17:55:00,47.6,37.2,29.89,WSW,249,2.0,9.0,67,0.00,,---,0.01,VWS V14.01,2013-03-17 00:55:00,
2013-03-16 17:58:00,47.7,36.9,29.89,SW,234,5.0,11.0,66,0.00,,---,0.01,VWS V14.01,2013-03-17 00:58:00,
2013-03-16 18:00:00,47.6,37.2,29.89,West,262,2.0,13.0,67,0.00,,---,0.01,VWS V14.01,2013-03-17 01:00:00,
2013-03-16 18:03:00,47.5,37.1,29.89,WSW,237,4.0,7.0,67,0.00,,---,0.01,VWS V14.01,2013-03-17 01:03:00,
2013-03-16 18:05:00,47.2,36.8,29.89,South,174,6.0,9.0,67,0.00,,---,0.01,VWS V14.01,2013-03-17 01:05:00,
2013-03-16 18:08:00,47.0,36.6,29.89,SW,230,4.0,10.0,67,0.00,,---,0.01,VWS V14.01,2013-03-17 01:08:00,
2013-03-16 18:10:00,46.7,36.3,29.90,WNW,294,3.0,10.0,67,0.00,,---,0.01,VWS V14.01,2013-03-17 01:10:00,
2013-03-16 18:13:00,46.6,36.6,29.90,SW,224,6.0,10.0,68,0.00,,---,0.01,VWS V14.01,2013-03-17 01:13:00,
2013-03-16 18:15:00,46.6,36.6,29.90,WSW,255,7.0,10.0,68,0.00,,---,0.01,VWS V14.01,2013-03-17 01:15:00,
2013-03-16 18:18:00,46.4,36.4,29.90,SSW,212,3.0,10.0,68,0.00,,---,0.01,VWS V14.01,2013-03-17 01:18:00,
2013-03-16 18:20:00,46.3,36.3,29.90,SSW,194,1.0,10.0,68,0.00,,---,0.01,VWS V14.01,2013-03-17 01:20:00,
2013-03-16 18:23:00,46.2,36.6,29.90,SSE,165,2.0,8.0,69,0.00,,---,0.01,VWS V14.01,2013-03-17 01:23:00,
2013-03-16 18:25:00,46.1,36.5,29.90,SSE,153,9.0,9.0,69,0.00,,---,0.01,VWS V14.01,2013-03-17 01:25:00,
2013-03-16 18:28:00,46.0,36.4,29.90,SE,136,2.0,9.0,69,0.00,,---,0.01,VWS V14.01,2013-03-17 01:28:00,
2013-03-16 18:30:00,45.9,36.3,29.90,South,179,2.0,9.0,69,0.00,,---,0.01,VWS V14.01,2013-03-17 01:30:00,
2013-03-16 18:33:00,45.9,36.7,29.90,WSW,246,0.0,7.0,70,0.00,,---,0.01,VWS V14.01,2013-03-17 01:33:00,
2013-03-16 18:35:00,45.7,36.5,29.90,South,169,5.0,8.0,70,0.00,,---,0.01,VWS V14.01,2013-03-17 01:35:00,
2013-03-16 18:38:00,45.6,36.4,29.90,SW,226,3.0,9.0,70,0.00,,---,0.01,VWS V14.01,2013-03-17 01:38:00,
2013-03-16 18:40:00,45.5,36.7,29.90,SSE,165,1.0,9.0,71,0.00,,---,0.01,VWS V14.01,2013-03-17 01:40:00,
2013-03-16 18:43:00,45.4,36.2,29.90,SE,130,1.0,9.0,70,0.00,,---,0.01,VWS V14.01,2013-03-17 01:43:00,
2013-03-16 18:45:00,45.3,36.5,29.90,SSW,199,4.0,9.0,71,0.00,,---,0.01,VWS V14.01,2013-03-17 01:45:00,
2013-03-16 18:48:00,45.2,36.4,29.90,South,183,5.0,7.0,71,0.00,,---,0.01,VWS V14.01,2013-03-17 01:48:00,
2013-03-16 18:50:00,45.2,36.4,29.90,ESE,122,1.0,7.0,71,0.00,,---,0.01,VWS V14.01,2013-03-17 01:50:00,
2013-03-16 18:53:00,45.2,36.4,29.90,South,191,4.0,5.0,71,0.00,,---,0.01,VWS V14.01,2013-03-17 01:53:00,
2013-03-16 18:55:00,45.1,36.3,29.91,SSW,212,4.0,7.0,71,0.00,,---,0.01,VWS V14.01,2013-03-17 01:55:00,
2013-03-16 18:58:00,45.1,35.9,29.91,ESE,123,5.0,5.0,70,0.00,,---,0.01,VWS V14.01,2013-03-17 01:58:00,
2013-03-16 19:00:00,45.2,35.7,29.91,East,82,6.0,6.0,69,0.00,,---,0.01,VWS V14.01,2013-03-17 02:00:00,
2013-03-16 19:03:00,45.2,35.7,29.91,East,96,5.0,9.0,69,0.00,,---,0.01,VWS V14.01,2013-03-17 02:03:00,
2013-03-16 19:05:00,44.6,36.8,29.91,ESE,105,3.0,9.0,74,0.00,,---,0.01,VWS V14.01,2013-03-17 02:05:00,
2013-03-16 19:08:00,43.7,36.3,29.91,East,80,4.0,6.0,75,0.00,,---,0.01,VWS V14.01,2013-03-17 02:08:00,
2013-03-16 19:10:00,42.7,36.7,29.91,East,79,0.0,6.0,79,0.00,,---,0.01,VWS V14.01,2013-03-17 02:10:00,
2013-03-16 19:13:00,42.4,36.4,29.91,ESE,122,1.0,5.0,79,0.00,,---,0.01,VWS V14.01,2013-03-17 02:13:00,
2013-03-16 19:15:00,42.0,36.3,29.91,East,79,5.0,6.0,80,0.00,,---,0.01,VWS V14.01,2013-03-17 02:15:00,
2013-03-16 19:18:00,41.7,36.3,29.91,East,92,5.0,7.0,81,0.00,,---,0.01,VWS V14.01,2013-03-17 02:18:00,
2013-03-16 19:20:00,41.4,36.0,29.91,ESE,115,1.0,7.0,81,0.00,,---,0.01,VWS V14.01,2013-03-17 02:20:00,
2013-03-16 19:23:00,41.3,35.9,29.91,East,101,5.0,7.0,81,0.00,,---,0.01,VWS V14.01,2013-03-17 02:23:00,
2013-03-16 19:25:00,41.2,36.1,29.91,ESE,117,2.0,7.0,82,0.00,,---,0.01,VWS V14.01,2013-03-17 02:25:00,
2013-03-16 19:28:00,41.1,36.0,29.91,East,94,2.0,6.0,82,0.00,,---,0.01,VWS V14.01,2013-03-17 02:28:00,
2013-03-16 19:30:00,40.9,35.8,29.91,ENE,69,2.0,6.0,82,0.00,,---,0.01,VWS V14.01,2013-03-17 02:30:00,
2013-03-16 19:33:00,40.8,36.0,29.91,ENE,66,0.0,6.0,83,0.00,,---,0.01,VWS V14.01,2013-03-17 02:33:00,
2013-03-16 19:35:00,40.7,36.0,29.91,ENE,76,1.0,6.0,83,0.00,,---,0.01,VWS V14.01,2013-03-17 02:35:00,
2013-03-16 19:38:00,40.7,36.0,29.91,NNE,20,2.0,7.0,83,0.00,,---,0.01,VWS V14.01,2013-03-17 02:38:00,
2013-03-16 19:40:00,40.6,35.8,29.92,ENE,61,3.0,7.0,83,0.00,,---,0.01,VWS V14.01,2013-03-17 02:40:00,
2013-03-16 19:43:00,40.4,35.7,29.92,East,86,1.0,6.0,83,0.00,,---,0.01,VWS V14.01,2013-03-17 02:43:00,
2013-03-16 19:45:00,40.2,35.8,29.92,NE,53,3.0,6.0,84,0.00,,---,0.01,VWS V14.01,2013-03-17 02:45:00,
2013-03-16 19:48:00,40.1,35.7,29.92,NE,46,2.0,6.0,84,0.00,,---,0.01,VWS V14.01,2013-03-17 02:48:00,
2013-03-16 19:50:00,40.1,35.7,29.92,East,84,4.0,6.0,84,0.00,,---,0.01,VWS V14.01,2013-03-17 02:50:00,
2013-03-16 19:53:00,40.3,35.6,29.92,ESE,102,4.0,7.0,83,0.00,,---,0.01,VWS V14.01,2013-03-17 02:53:00,
2013-03-16 19:55:00,40.6,35.8,29.92,ESE,103,5.0,7.0,83,0.00,,---,0.01,VWS V14.01,2013-03-17 02:55:00,
2013-03-16 19:58:00,40.5,36.0,29.92,ENE,68,3.0,5.0,84,0.00,,---,0.01,VWS V14.01,2013-03-17 02:58:00,
2013-03-16 20:00:00,40.3,35.9,29.92,East,94,1.0,6.0,84,0.00,,---,0.01,VWS V14.01,2013-03-17 03:00:00,
2013-03-16 20:03:00,40.2,35.8,29.92,East,82,2.0,6.0,84,0.00,,---,0.01,VWS V14.01,2013-03-17 03:03:00,
2013-03-16 20:05:00,40.0,35.6,29.92,East,100,3.0,6.0,84,0.00,,---,0.01,VWS V14.01,2013-03-17 03:05:00,
2013-03-16 20:08:00,39.9,35.8,29.92,East,91,3.0,4.0,85,0.00,,---,0.01,VWS V14.01,2013-03-17 03:08:00,
2013-03-16 20:10:00,39.7,35.6,29.92,East,86,1.0,5.0,85,0.00,,---,0.01,VWS V14.01,2013-03-17 03:10:00,
2013-03-16 20:13:00,39.6,35.5,29.93,NE,37,1.0,2.0,85,0.00,,---,0.01,VWS V14.01,2013-03-17 03:13:00,
2013-03-16 20:15:00,39.4,35.6,29.93,NE,46,4.0,5.0,86,0.00,,---,0.01,VWS V14.01,2013-03-17 03:15:00,
2013-03-16 20:18:00,39.3,35.5,29.93,NE,42,3.0,6.0,86,0.00,,---,0.01,VWS V14.01,2013-03-17 03:18:00,
2013-03-16 20:20:00,39.1,35.3,29.93,East,83,4.0,6.0,86,0.00,,---,0.01,VWS V14.01,2013-03-17 03:20:00,
2013-03-16 20:23:00,39.0,35.2,29.93,ENE,75,3.0,5.0,86,0.00,,---,0.01,VWS V14.01,2013-03-17 03:23:00,
2013-03-16 20:25:00,38.9,35.4,29.93,ENE,63,2.0,5.0,87,0.00,,---,0.01,VWS V14.01,2013-03-17 03:25:00,
2013-03-16 20:28:00,38.9,35.4,29.93,East,83,3.0,5.0,87,0.00,,---,0.01,VWS V14.01,2013-03-17 03:28:00,
2013-03-16 20:30:00,38.9,35.4,29.93,East,97,6.0,6.0,87,0.00,,---,0.01,VWS V14.01,2013-03-17 03:30:00,
2013-03-16 20:33:00,39.0,35.5,29.93,East,95,5.0,8.0,87,0.00,,---,0.01,VWS V14.01,2013-03-17 03:33:00,
2013-03-16 20:35:00,39.0,35.5,29.93,East,101,3.0,9.0,87,0.00,,---,0.01,VWS V14.01,2013-03-17 03:35:00,
2013-03-16 20:38:00,39.1,35.6,29.94,East,87,5.0,6.0,87,0.00,,---,0.01,VWS V14.01,2013-03-17 03:38:00,
2013-03-16 20:40:00,39.1,35.6,29.94,East,89,3.0,6.0,87,0.00,,---,0.01,VWS V14.01,2013-03-17 03:40:00,
2013-03-16 20:43:00,39.1,35.6,29.93,East,98,2.0,5.0,87,0.00,,---,0.01,VWS V14.01,2013-03-17 03:43:00,
2013-03-16 20:45:00,39.1,35.6,29.94,East,96,2.0,5.0,87,0.00,,---,0.01,VWS V14.01,2013-03-17 03:45:00,
2013-03-16 20:48:00,39.2,35.4,29.93,East,96,4.0,4.0,86,0.00,,---,0.01,VWS V14.01,2013-03-17 03:48:00,
2013-03-16 20:50:00,39.2,35.4,29.94,East,98,1.0,4.0,86,0.00,,---,0.01,VWS V14.01,2013-03-17 03:50:00,
2013-03-16 20:53:00,39.2,35.4,29.94,SE,127,1.0,1.0,86,0.00,,---,0.01,VWS V14.01,2013-03-17 03:53:00,
2013-03-16 20:55:00,39.3,35.5,29.94,ESE,119,2.0,4.0,86,0.00,,---,0.01,VWS V14.01,2013-03-17 03:55:00,
2013-03-16 20:58:00,39.4,35.0,29.93,East,84,0.0,4.0,84,0.00,,---,0.01,VWS V14.01,2013-03-17 03:58:00,
2013-03-16 21:00:00,39.6,34.9,29.93,SW,229,3.0,5.0,83,0.00,,---,0.01,VWS V14.01,2013-03-17 04:00:00,
2013-03-16 21:05:00,40.2,35.2,29.93,SSE,147,0.0,3.0,82,0.00,,---,0.01,VWS V14.01,2013-03-17 04:05:00,
2013-03-16 21:10:00,40.4,35.0,29.93,SSE,160,4.0,5.0,81,0.00,,---,0.01,VWS V14.01,2013-03-17 04:10:00,
2013-03-16 21:15:00,40.5,35.1,29.93,South,184,0.0,9.0,81,0.00,,---,0.01,VWS V14.01,2013-03-17 04:15:00,
2013-03-16 21:20:00,40.6,35.2,29.93,SW,233,0.0,7.0,81,0.00,,---,0.01,VWS V14.01,2013-03-17 04:20:00,
2013-03-16 21:25:00,40.5,35.5,29.93,South,172,0.0,3.0,82,0.00,,---,0.01,VWS V14.01,2013-03-17 04:25:00,
2013-03-16 21:30:00,40.4,35.7,29.93,SSE,167,1.0,6.0,83,0.00,,---,0.01,VWS V14.01,2013-03-17 04:30:00,
2013-03-16 21:35:00,40.3,35.9,29.94,WSW,238,1.0,8.0,84,0.00,,---,0.01,VWS V14.01,2013-03-17 04:35:00,
2013-03-16 21:40:00,40.3,35.9,29.93,SW,219,6.0,8.0,84,0.00,,---,0.01,VWS V14.01,2013-03-17 04:40:00,
2013-03-16 21:45:00,40.3,35.9,29.93,WSW,256,1.0,9.0,84,0.00,,---,0.01,VWS V14.01,2013-03-17 04:45:00,
2013-03-16 21:50:00,40.2,35.8,29.93,WSW,257,2.0,8.0,84,0.00,,---,0.01,VWS V14.01,2013-03-17 04:50:00,
2013-03-16 21:55:00,40.3,36.2,29.94,WNW,286,2.0,8.0,85,0.00,,---,0.01,VWS V14.01,2013-03-17 04:55:00,
2013-03-16 22:00:00,40.2,36.1,29.94,West,277,3.0,7.0,85,0.00,,---,0.01,VWS V14.01,2013-03-17 05:00:00,
2013-03-16 22:05:00,40.1,36.3,29.94,SW,223,1.0,9.0,86,0.00,,---,0.01,VWS V14.01,2013-03-17 05:05:00,
2013-03-16 22:10:00,40.0,36.2,29.94,WSW,240,1.0,7.0,86,0.00,,---,0.01,VWS V14.01,2013-03-17 05:10:00,
2013-03-16 22:15:00,39.9,36.1,29.94,SW,236,4.0,7.0,86,0.00,,---,0.01,VWS V14.01,2013-03-17 05:15:00,
2013-03-16 22:20:00,39.9,36.1,29.95,West,264,3.0,8.0,86,0.00,,---,0.01,VWS V14.01,2013-03-17 05:20:00,
2013-03-16 22:25:00,39.8,36.0,29.95,WSW,242,6.0,6.0,86,0.00,,---,0.01,VWS V14.01,2013-03-17 05:25:00,
2013-03-16 22:30:00,39.7,35.9,29.95,WSW,243,9.0,10.0,86,0.00,,---,0.01,VWS V14.01,2013-03-17 05:30:00,
2013-03-16 22:35:00,39.7,35.9,29.95,WSW,239,3.0,7.0,86,0.00,,---,0.01,VWS V14.01,2013-03-17 05:35:00,
2013-03-16 22:40:00,39.7,35.9,29.95,WSW,248,3.0,6.0,86,0.00,,---,0.01,VWS V14.01,2013-03-17 05:40:00,
2013-03-16 22:45:00,39.6,36.1,29.95,WSW,243,0.0,6.0,87,0.00,,---,0.01,VWS V14.01,2013-03-17 05:45:00,
2013-03-16 22:50:00,39.5,36.0,29.95,WSW,257,4.0,8.0,87,0.00,,---,0.01,VWS V14.01,2013-03-17 05:50:00,
2013-03-16 22:55:00,39.4,35.9,29.95,SSW,210,2.0,8.0,87,0.00,,---,0.01,VWS V14.01,2013-03-17 05:55:00,
2013-03-16 23:00:00,39.3,35.8,29.95,NW,307,3.0,8.0,87,0.00,,---,0.01,VWS V14.01,2013-03-17 06:00:00,
2013-03-16 23:05:00,39.1,35.6,29.95,WSW,251,2.0,6.0,87,0.00,,---,0.01,VWS V14.01,2013-03-17 06:05:00,
2013-03-16 23:10:00,39.1,35.8,29.95,SSE,159,1.0,6.0,88,0.00,,---,0.01,VWS V14.01,2013-03-17 06:10:00,
2013-03-16 23:15:00,38.9,35.7,29.96,WSW,247,2.0,6.0,88,0.00,,---,0.01,VWS V14.01,2013-03-17 06:15:00,
2013-03-16 23:20:00,38.8,35.6,29.96,WSW,245,0.0,3.0,88,0.00,,---,0.01,VWS V14.01,2013-03-17 06:20:00,
2013-03-16 23:25:00,38.8,35.6,29.96,SW,235,0.0,6.0,88,0.00,,---,0.01,VWS V14.01,2013-03-17 06:25:00,
2013-03-16 23:30:00,38.7,35.5,29.96,South,186,2.0,4.0,88,0.00,,---,0.01,VWS V14.01,2013-03-17 06:30:00,
2013-03-16 23:35:00,38.6,35.4,29.97,SW,219,2.0,5.0,88,0.00,,---,0.01,VWS V14.01,2013-03-17 06:35:00,
2013-03-16 23:40:00,38.4,35.5,29.97,WSW,250,5.0,6.0,89,0.00,,---,0.01,VWS V14.01,2013-03-17 06:40:00,
2013-03-16 23:45:00,38.4,35.5,29.97,South,186,2.0,4.0,89,0.00,,---,0.01,VWS V14.01,2013-03-17 06:45:00,
2013-03-16 23:50:00,38.3,35.3,29.98,SSW,197,1.0,2.0,89,0.00,,---,0.01,VWS V14.01,2013-03-17 06:50:00,
2013-03-16 23:55:00,38.3,35.3,29.98,WSW,249,1.0,4.0,89,0.00,,---,0.01,VWS V14.01,2013-03-17 06:55:00,